Regional Weather Roundup
Issued by NWS

Home | Current Version | Previous Version | Text Only | Print | Product List | Glossary Off
Versions: 1 2 3 4 5 6 7 8 9 10 11 12 13 14 15 16 17 18 19 20 21 22 23 24 25 26 27 28 29 30 31 32 33 34 35 36 37 38 39 40 41 42 43 44 45 46 47 48 49 50

000
ASUS43 KOAX 310010
RWRNE

WEATHER ROUNDUP FOR NEBRASKA
NATIONAL WEATHER SERVICE OMAHA NE
700 PM CDT THU JUL 30 2015

NOTES: SATELLITE DATA IS BEING USED TO AUGMENT CLOUD COVER ABOVE
       12000 FEET.
       "FAIR" INDICATES FEW OR NO CLOUDS BELOW 12,000 FEET WITH NO
       SIGNIFICANT WEATHER AND/OR OBSTRUCTIONS TO VISIBILITY.

  * THESE STATIONS DO NOT REPORT WEATHER SUCH AS RAIN...SNOW OR FOG.

NEZ001>004-019>022-054>056-310100-
NEBRASKA PANHANDLE

CITY           SKY/WX    TMP DP  RH WIND       PRES   REMARKS
SCOTTSBLUFF    SUNNY     89  44  20 SE7       30.21F
6HR MIN TEMP:  81; 6HR MAX TEMP:  90;

ALLIANCE       SUNNY     88  48  25 NE6       30.21F
6HR MIN TEMP:  84; 6HR MAX TEMP:  90;

CHADRON        SUNNY     89  42  19 CALM      30.19F
6HR MIN TEMP:  84; 6HR MAX TEMP:  92;

KIMBALL        SUNNY     85  45  24 N9        30.25F
SIDNEY         MOSUNNY   81  60  48 S13       30.24F
6HR MIN TEMP:  79; 6HR MAX TEMP:  91;

$$

NEZ057>060-069>072-079>082-310100-
SOUTHWEST NEBRASKA

CITY           SKY/WX    TMP DP  RH WIND       PRES   REMARKS
NORTH PLATTE   SUNNY     83  58  42 S7        30.15F
6HR MIN TEMP:  83; 6HR MAX TEMP:  90;

IMPERIAL       PTSUNNY   89  55  31 SE14      30.17F
6HR MIN TEMP:  84; 6HR MAX TEMP:  92;

LEXINGTON      SUNNY     88  63  42 S10       30.15F
MCCOOK         MOSUNNY   88  60  38 SE10      30.15F
6HR MIN TEMP:  85; 6HR MAX TEMP:  93;

OGALLALA       TSTM      69  64  86 W17G23    30.23R
$$

NEZ005>010-023>029-035>040-094-310100-
NORTH CENTRAL NEBRASKA

CITY           SKY/WX    TMP DP  RH WIND       PRES   REMARKS
VALENTINE      SUNNY     90  43  19 N10       30.16S
6HR MIN TEMP:  89; 6HR MAX TEMP:  93;

AINSWORTH      SUNNY     87  56  35 NE5       30.15F
BROKEN BOW     MOSUNNY   88  63  43 S7        30.16F
6HR MIN TEMP:  84; 6HR MAX TEMP:  89;

O`NEILL        MOSUNNY   86  62  44 NE5       30.13S
ORD            MOSUNNY   86  62  44 SW6       30.11F
6HR MIN TEMP:  84; 6HR MAX TEMP:  91;

THEDFORD       PTSUNNY   81  63  54 E5        30.19S
$$

NEZ041-046>049-061>064-073>077-083>087-310100-
SOUTH CENTRAL NEBRASKA

CITY           SKY/WX    TMP DP  RH WIND       PRES   REMARKS
GRAND ISLAND   SUNNY     87  64  46 VRB6      30.14F
6HR MIN TEMP:  85; 6HR MAX TEMP:  90;

AURORA         SUNNY     84  67  56 SE7       30.14F
HASTINGS       SUNNY     87  63  44 S7        30.15F
6HR MIN TEMP:  83; 6HR MAX TEMP:  88;

HEBRON         SUNNY     86  61  42 S5        30.13F
HOLDREGE       SUNNY     84  63  49 SE5       30.15F
KEARNEY *      SUNNY     84  64  51 S6        30.15F
YORK           SUNNY     84  66  54 S5        30.14F
$$

NEZ011>018-030>034-042>045-310100-
NORTHEAST NEBRASKA

CITY           SKY/WX    TMP DP  RH WIND       PRES   REMARKS
NORFOLK        SUNNY     86  61  42 S8        30.11F
6HR MIN TEMP:  85; 6HR MAX TEMP:  88;

ALBION         SUNNY     85  63  47 S8        30.12F
BLAIR          SUNNY     84  64  50 SW3       30.12F
COLUMBUS *     SUNNY     84  64  51 S6        30.11F
FREMONT        SUNNY     86  62  44 SW3       30.12F
TEKAMAH        SUNNY     85  71  63 SW3       30.10F HX  90
6HR MIN TEMP:  84; 6HR MAX TEMP:  87;

WAYNE          SUNNY     85  67  54 S6        30.11F
$$

NEZ050>053-065>068-078-088>093-310100-
SOUTHEAST NEBRASKA

CITY           SKY/WX    TMP DP  RH WIND       PRES   REMARKS
LINCOLN        SUNNY     88  60  38 S9        30.12F
6HR MIN TEMP:  88; 6HR MAX TEMP:  92;

OMAHA EPPLEY   MOSUNNY   89  60  37 CALM      30.10F
6HR MIN TEMP:  87; 6HR MAX TEMP:  91;

BEATRICE       SUNNY     85  60  42 S7        30.13F
FALLS CITY     SUNNY     84  65  52 S5        30.12F
6HR MIN TEMP:  84; 6HR MAX TEMP:  87;

NEBRASKA CITY  SUNNY     83  62  48 W3        30.13F
PLATTSMOUTH    SUNNY     84  62  46 SW5       30.12F
$$

NEZ044-045-051>053-067-310100-
OMAHA AREA

CITY           SKY/WX    TMP DP  RH WIND       PRES   REMARKS
OMAHA EPPLEY   MOSUNNY   89  60  37 CALM      30.10F
6HR MIN TEMP:  87; 6HR MAX TEMP:  91;

BLAIR          SUNNY     84  64  50 SW3       30.12F
FREMONT        SUNNY     86  62  44 SW3       30.12F
MILLARD        SUNNY     88  61  39 SW5       30.10F
OFFUTT AFB     SUNNY     87  61  42 SW5       30.10F
PLATTSMOUTH    SUNNY     84  62  46 SW5       30.12F
WAHOO          FAIR      86  64  48 W3        30.12F
$$


USA.gov is the U.S. government's official web portal to all federal, state and local government web resources and services.